Other Public Products
Issued by NWS Grand Forks, ND

Home | Current Version | Previous Version | Graphics & Text | Print | Product List | Glossary On
Versions: 1 2 3 4 5 6 7 8 9 10 11 12 13 14 15 16 17 18 19 20 21 22 23 24 25 26 27 28 29 30 31 32 33 34 35 36 37 38 39 40 41 42 43 44 45 46 47 48 49 50
000
FPUS83 KFGF 271031
OPUFGF
PRAIRIE TO PINES WEATHER ROUNDUP
NATIONAL WEATHER SERVICE EASTERN NORTH DAKOTA/GRAND FORKS ND
500 AM CDT THU APR 27 2017

 **SATELLITE DATA USED TO AUGMENT SKY COVER AT AUTOMATED STATIONS**
 *****  WEATHER ACROSS EASTERN NORTH DAKOTA  *****

CITY           SKY/WX    TMP DP  RH WIND       PRES   REMARKS
GRAND FORKS    CLOUDY    28  26  92 N12       29.73S WCI  18
GRAND FORKS AF CLOUDY    27  25  92 NE9       29.74S WCI  17
GRAND CITY NWS NOT AVBL
BUXTON           N/A     26  26  99 N8          N/A  WCI  18
DEVILS LAKE    FAIR      28  23  81 N12       29.74S WCI  18
FARGO          FLURRIES  27  24  89 N16       29.69S WCI  15
WAHPETON ARPT  CLOUDY    28  25  86 N13G18    29.66F WCI  18
$$

 *****  WEATHER ACROSS CENTRAL AND WESTERN NORTH DAKOTA  *****

CITY           SKY/WX    TMP DP  RH WIND       PRES   REMARKS
JAMESTOWN      CLOUDY    30  26  85 N7        29.70F WCI  23
BISMARCK       FAIR      31  24  75 N7        29.75S WCI  24
MINOT          FAIR      23  18  81 NW6       29.77R WCI  16
MINOT AFB      FAIR      25  20  82 N7        29.77R WCI  17
GARRISON         N/A     20  17  88 NW8       29.76  WCI  10
WILLISTON      FAIR      30  25  81 E6        29.77R WCI  24
DICKINSON      FAIR      20  18  92 SE8       29.70F WCI  10
HETTINGER      FAIR      21  19  92 E5        29.72F WCI  15
$$

 *****  OTHER OBSERVATIONS NORTHEAST NORTH DAKOTA  *****

CITY           SKY/WX    TMP DP  RH WIND       PRES   REMARKS
WALHALLA       NOT AVBL
LANGDON        FAIR      28  18  64 NE8       29.74S WCI  20
CAVALIER       FAIR      28  25  86 CALM      29.75F
GRAFTON        FAIR      27  23  86 NE7       29.77S WCI  19
CANDO          NOT AVBL
FORT TOTTEN      N/A     31  21  67 N7        29.95S WCI  24
ROLLA          FAIR      23  18  80 NW10      29.76F WCI  12
RUGBY          NOT AVBL
 ***** THE ABOVE OBSERVATIONS ARE NON NWS ARE NOT QUALITY
        CONTROLLED AND MAY MIS-REPORT RAIN FOR SNOW...
$$

 *****  OTHER OBSERVATIONS SOUTHEAST NORTH DAKOTA *****

CITY           SKY/WX    TMP DP  RH WIND       PRES   REMARKS
COOPERSTOWN    CLOUDY    28  27  93 N10       29.72S WCI  19
VALLEY CITY    CLOUDY    27  27 100 N10       29.72S WCI  17
OAKES          NOT AVBL
GWINNER        CLOUDY    28  27  93 MISG      29.69S
SHEYENNE NWR     N/A     26  23  88 N7        29.95S WCI  18
BUFFALO          N/A     27  24  88 SE9         N/A  WCI  18
WYNDMERE         N/A     27  25  93 N13         N/A  WCI  16
 ***** THE ABOVE OBSERVATIONS ARE NON NWS ARE NOT QUALITY
       CONTROLLED AND MAY MIS-REPORT RAIN FOR SNOW...
$$

  *****  WEATHER ACROSS NORTHERN MINNESOTA  *****

CITY           SKY/WX    TMP DP  RH WIND       PRES   REMARKS
FLAG ISLAND    LGT SNOW  25  19  80 NE18      29.70F WCI  11
WARROAD        LGT SNOW  25  21  86 NE16      29.71F WCI  12
ROSEAU         LGT SNOW  25  21  86 NE5       29.72S WCI  19
HALLOCK        FAIR      25  21  86 N3        29.75S
THF RVR FALLS  FLURRIES  25  19  80 N7        29.71S WCI  17
HALSTAD          N/A     25  21  84 N12         N/A  WCI  15
FOSSTON        CLOUDY    21  18  86 N14       29.66S WCI   8
BAUDETTE       LGT SNOW  22  17  81 NE9       29.66F WCI  12
WASKISH        CLOUDY    21  19  93 N6        29.65S WCI  14
CROOKSTON      FLURRIES  25  23  93 NE5       29.72F WCI  19
$$
  *****  WEATHER ACROSS CENTRAL AND WEST MINNESOTA  *****

CITY           SKY/WX    TMP DP  RH WIND       PRES   REMARKS
BEMIDJI        CLOUDY    22  18  85 N10G16    29.63S WCI  11
PARK RAPIDS    LGT SNOW  24  18  77 N8        29.60S WCI  15
WADENA         CLOUDY    25  21  86 N7        29.59S WCI  17
DETROIT LAKES  MOCLDY    27  23  86 CALM      29.63F
MOORHEAD       LGT RAIN  27  23  86 N8        29.69S WCI  18
FERGUS FALLS   CLOUDY    27  25  93 N12G17    29.63S WCI  16
ELBOW LAKE     PTSUNNY   28  25  88 NW13G18   29.61S WCI  18
MORRIS MN      CLOUDY    28  28 100 NW13      29.60S FOG     WCI  18
STAPLES        CLOUDY    25  21  86 N7        29.59S WCI  17
WHEATON        CLOUDY    28  25  86 NW13      29.66S WCI  18
$$
  *****  WEATHER ELSEWHERE ACROSS MINNESOTA  *****

CITY           SKY/WX    TMP DP  RH WIND       PRES   REMARKS
DULUTH         CLOUDY    23  20  88 N9        29.53F WCI  13
INTRNTL FALLS  CLOUDY    21  13  71 NE10G20   29.64F WCI  10
ELY            CLOUDY    19  16  86 N6        29.55F WCI  11
CLOQUET        CLOUDY    23  19  86 NW9       29.55S WCI  13
BRAINERD       CLOUDY    26  23  88 NE8       29.59R WCI  18
HIBBING        CLOUDY    21  18  88 N10       29.57S WCI  10
ALEXANDRIA     CLOUDY    28  24  85 N10       29.59S WCI  19
SAINT CLOUD    CLOUDY    30  29  96 NW8       29.56S FOG     WCI  22
MINNEAPOLIS    FLURRIES  34  31  88 N8        29.53F
$$

  *****  WEATHER ACROSS SOUTH DAKOTA  *****

CITY           SKY/WX    TMP DP  RH WIND       PRES   REMARKS
SIOUX FALLS    CLOUDY    31  26  82 NW18      29.64R WCI  19
BROOKINGS      CLOUDY    28  25  88 NW14      29.62F WCI  17
WATERTOWN      CLOUDY    27  23  85 NW14      29.62F WCI  16
HURON          CLOUDY    30  24  78 N10       29.70S WCI  21
SISSETON         N/A     28  24  85 N20       29.65F WCI  15
ABERDEEN       CLOUDY    29  24  82 NW9       29.71S WCI  20
MITCHELL       CLOUDY    32  25  75 NW12      29.69F WCI  23
PIERRE         CLOUDY    28  25  88 NW7       29.71S WCI  21
MOBRIDGE       CLOUDY    32  24  72 N3        29.70F
RAPID CITY     FAIR      28  24  85 N9        29.65F WCI  19
$$

  *****  SOME WEATHER IN NEARBY STATES *****

CITY           SKY/WX    TMP DP  RH WIND       PRES   REMARKS
GLASGOW MT     FAIR      33  21  61 E16       29.66R WCI  23
GREAT FALLS MT CLOUDY    38  35  89 SW8       29.59S
CHEYENNE WY    CLOUDY    38  34  85 SW13      29.60F
SCOTTSBLUFF NE FAIR      38  35  89 E8        29.59F
OMAHA NE       CLOUDY    38  27  64 NW16      29.66R
DES MOINES IA  DRIZZLE   37  33  85 NW20      29.58S
DAVENPORT IA   LGT RAIN  39  37  92 W18       29.46S
CHICAGO IL     LGT RAIN  60  55  83 S17G26    29.29F
EAU CLAIRE WI  CLOUDY    34  27  75 N8        29.47F
LA CROSSE WI   LGT RAIN  39  35  86 NW16      29.45S
$$

  *****  SOME NATIONAL WEATHER *****

CITY           SKY/WX    TMP DP  RH WIND       PRES   REMARKS
LA GUARDIA NY  DRZL/FOG  57  55  93 CALM      29.87R VSB 1/2
RALEIGH NC     FAIR      63  58  83 S8        29.86F
ATLANTA GA     CLOUDY    65  59  81 S12       29.80R
NEW ORLEANS LA FAIR      68  61  78 NW7       29.72R
OKLAHOMA CITY  FAIR      39  38  96 CALM      29.75R
ALBUQUERQUE NM FAIR      51  30  44 S6        29.74F
SALT LAKE CITY MOCLDY    45  39  79 W18       29.76R
LOS ANGELES CA FAIR      57  55  93 VRB5      29.82S
BOISE ID       FAIR      39  36  89 W5        29.87R
SEATTLE WA     MOCLDY    44  38  79 SW10      30.03S
$$

*** WEATHER ACROSS MANITOBA...SASKATCHEWAN AND ONTARIO ***
                ***ONTARIO***

CITY           SKY/WX    TMP DP  RH WIND       PRES   REMARKS
GERALDTON      FRZ DRZL  16  14  93 NE13G20   29.59F FOG     WCI   2
THUNDER BAY    CLOUDY    21  18  86 N8        29.55F WCI  12
SIOUX LOOKOUT  LGT SNOW  18  14  86 NE7       29.68F WCI   8
TORONTO        PTCLDY    48  46  93 NE3       29.65S
BIG TROUT LK   CLOUDY    18   9  68 NE8       30.01F WCI   7
PICKLE LAKE    NOT AVBL
DRYDEN         FLURRIES  19  14  79 NE12G18   29.67F WCI   7
KENORA         FLURRIES  21  16  79 NE13G21   29.70  WCI   9
$$
                *** MANITOBA***

CITY           SKY/WX    TMP DP  RH WIND       PRES   REMARKS
BRANDON        PTCLDY    23  16  74 N9        29.82S WCI  13
DAUPHIN        CLEAR     18  14  86 NW5       29.88S WCI  11
ISLAND LAKE    PTCLDY    21   7  53 NE7       30.01S WCI  13
PILOT MOUND      N/A     23  18  80 N7          N/A  WCI  15
THE PAS        MOCLDY    27  10  50 E7        29.97S WCI  19
THOMPSON       CLEAR     18   3  53 E2        30.06S
WINNIPEG       PTCLDY    28  16  59 NE9       29.79S WCI  20
LYNN LAKE      CLEAR     18   5  57 E3        30.01R
CHURCHILL      PTCLDY     9   0  66 SW9       30.13S WCI  -5
GILLAM         PTCLDY     9   1  72 E2        30.13R
$$
                ***SASKATCHEWAN***

CITY           SKY/WX    TMP DP  RH WIND       PRES   REMARKS
ESTEVAN        PTCLDY    27  23  86 E8        29.79S WCI  18
KINDERSLEY     FLURRIES  32  30  93 E16G28    29.67S WCI  21
LLOYDMINSTER   LGT SNOW  30  30 100 E8        29.76F WCI  23
PRINCE ALBERT  MOCLDY    30  21  69 E8        29.87S WCI  23
REGINA         PTCLDY    28  21  74 SE16      29.79F WCI  17
YORKTON        CLEAR     23  19  86 N3        29.85F



USA.gov is the U.S. government's official web portal to all federal, state and local government web resources and services.